sat.trackr.live / text

‹ back to catalog

ONEWEB-0677

NORAD 56713 · 2023-068D

PAYLOAD ACTIVE UNKNOWN

§ Identity

Operator
Country
UK
Launch date
2023-05-20
Launch site
AFWTR
Launch vehicle
Mass (kg)
RCS (m²)

Purposes: comms

External: N2YO · Heavens-Above · Gunter

§ Orbital elements

Epoch: 2026-09-19T22:58:59.789280Z

Period
109.03 min
Inclination
87.9143°
Eccentricity
0.0002169
Mean motion
13.20771936 rev/d
Perigee alt
1,180.1 km
Apogee alt
1,183.4 km
Semi-major
7,559.9 km
B*
3.1627e-5
RAAN
255.5281°
Arg perigee
97.3312°
Mean anomaly
262.8068°
Rev number
16,231

§ Raw data

ONEWEB-06771 56713U 23068D   26262.95763645  .00000026  00000+0  31627-4 0  99942 56713  87.9143 255.5281 0002169  97.3312 262.8068 13.20771936162311

JSON: /api/v1/satellites/56713 · /tle

For live sub-satellite position, see the globe view (requires WebGL).

§ Visibility from observer

Set your observer location to see the next 7 days of passes ≥ 10°. The values pass through the URL so the page stays shareable.

No JS? Fill the form by hand. The geolocation button needs JavaScript.